User: anonymous
Location: Keeble Observatory
(37.7625°N, 77.4755°W)
Time: 03:39:08
(UTC-04:00)
Language:

Cosmos 1484 Rocket - Orbit

View from above orbital plane
View from above orbital plane
View from above satellite
View from above satellite

Ground track
Ground track

The orbit data is extracted from the following two-line orbital elements,

1 14208U 83075B   14203.11044063  .00000448  00000-0  33382-4 0   728
2 14208 097.4228 238.7214 0043066 180.8872 179.2286 15.07016755687462
Epoch (UTC): 22 July 2014 02:39:02
Eccentricity: 0.0043066
inclination: 97.4228°
perigee height: 515 km
apogee height: 575 km
right ascension of ascending node: 238.7214°
argument of perigee: 180.8872°
revolutions per day: 15.07016755
mean anomaly at epoch: 179.2286°
orbit number at epoch: 68746

The dashed part of the orbit path shows where the satellite is in the earth's shadow,  

DLR